Dewpoint
-3 -2 -1 -3 -4 -5 -4 -6 -7 -5 -5 -3 -2 -0 -3 2 2 3 4 4 6 6 6 7 8 7 6 7 7 7 7 7 8 8 7 5 6 6 7 7 9 9 9 9
-1 -0 -4 -4 -5 -3 -3 -4 -6 -6 -5 -4 -4 -1 -4 -3 2 2 4 3 5 6 6 7 7 8 6 7 7 7 7 7 8 8 7 5 4 5 6 7 9 10 10 9
-1 -3 -5 -3 -4 -2 -2 -3 -1 -2 -1 -5 -4 -4 -5 -5 0 3 3 3 3 5 6 7 7 8 8 7 7 8 7 8 8 7 7 6 5 5 7 7 8 9 10 8
-3 -5 -3 -3 -2 -3 -1 -5 -4 -4 -3 -1 -0 2 1 -5 -2 1 3 5 4 3 5 6 8 9 9 8 8 8 8 8 8 9 7 7 5 4 5 7 8 9 8 6
-3 -4 -2 -2 -2 -4 -2 -2 -3 -3 -1 -0 -1 -3 2 -5 -7 -4 1 4 4 2 3 4 7 8 9 9 9 9 8 8 8 9 9 8 7 6 6 7 8 8 9 9
-4 -6 -5 -4 -5 -4 -4 -2 -2 -2 -1 4 -1 -1 0 -3 -7 -8 -7 -1 2 3 2 2 4 6 7 8 9 9 9 8 9 9 10 10 9 8 6 6 9 9 10 8
-4 -3 -4 -4 -2 -3 -2 -1 2 4 7 4 1 -2 -1 -1 -6 -6 -6 -6 -2 1 3 3 3 5 7 7 9 10 10 9 9 10 10 10 10 10 9 9 10 8 8 8
-2 -0 -3 -4 -3 -1 -1 -1 3 7 6 7 -1 -2 -3 -6 -7 -6 -4 -3 -2 -1 1 3 4 3 5 7 8 9 10 10 9 10 11 11 11 11 11 10 7 7 5 7
-3 -3 -6 -5 -5 -4 -0 1 -1 3 2 2 -1 -4 -7 -7 -8 -6 -5 -4 -2 -1 -1 2 3 5 4 6 8 10 10 10 10 10 11 11 11 12 12 10 8 7 6 7
-4 -2 -5 -4 -3 -3 0 -2 2 1 5 5 -1 -3 -3 -5 -4 -7 -7 -6 -5 -1 0 2 3 4 6 6 8 9 11 10 10 10 11 11 11 11 11 11 8 7 6 7
-5 -3 -2 -1 -0 -2 -0 2 0 2 4 4 2 -2 -4 -6 -6 -5 -5 -6 -5 -3 0 2 3 3 5 7 8 10 11 11 11 11 11 11 11 10 10 10 10 9 8 9
-5 -3 1 0 -5 -5 -3 -1 -1 2 1 1 2 2 -6 -6 -7 -6 -6 -5 -4 -1 -1 2 3 4 5 6 7 9 10 11 11 11 11 11 11 11 10 10 9 9 9 9
-4 -2 1 -1 -0 -2 -1 -1 -1 -0 -1 2 7 2 -5 -5 -5 -6 -6 -6 -4 -2 -1 0 3 4 6 7 8 9 10 10 9 10 10 11 10 10 9 9 9 9 8 9
-3 -3 -1 1 -1 -2 -1 -3 -3 -1 4 1 -0 -3 -4 -5 -5 -6 -6 -5 -5 -3 -3 -0 2 5 7 8 9 9 10 11 11 10 10 10 9 9 9 9 8 8 8 7
-2 -1 -2 -4 -5 -5 -5 -4 -4 -2 -2 1 -2 -3 -6 -6 -5 -5 -3 -3 -2 -1 -1 -2 3 5 8 9 11 11 9 9 9 10 10 9 9 9 8 8 8 8 7 6
-2 0 -1 -2 -4 -5 -4 -6 -6 -7 -6 -6 -6 -5 -7 -7 -8 -5 -3 -2 -0 2 3 3 4 7 9 10 10 10 10 10 10 10 9 9 8 8 7 7 6 6 6 5
-0 2 1 2 -3 -3 2 -3 -5 -6 -6 -5 -2 -4 -7 -6 -6 -5 -4 -0 1 4 5 6 7 9 9 9 9 8 8 8 8 8 7 7 6 6 5 4 5 4 3 3
0 1 2 5 7 7 -1 -5 -5 -4 -5 -6 -6 -6 -6 -7 -6 -4 -2 0 3 4 5 7 7 8 8 8 7 7 6 6 5 5 4 4 3 3 2 2 2 2 1 1
3 2 5 7 6 0 -3 -2 -2 -3 -4 -6 -6 -7 -7 -5 -1 0 1 2 3 4 5 5 6 6 6 5 5 4 4 4 3 3 2 2 3 2 2 1 1 1 1 0
1 4 6 6 6 7 -0 -4 -5 -5 2 -5 -6 -5 -5 -2 2 -3 1 3 3 3 3 4 4 4 4 4 3 3 3 3 3 3 2 2 2 1 1 1 0 -1 -1 -2
6 7 9 6 6 2 -4 -5 -5 3 2 -6 -5 -5 -5 -2 -2 1 1 2 2 2 2 3 3 3 3 3 3 3 3 2 2 2 2 1 1 0 -0 -2 -3 -4 -5 -6
6 7 9 7 9 8 -1 -2 0 0 -4 -3 -3 -4 -3 -0 2 1 1 1 1 1 2 2 2 2 2 2 2 2 2 1 1 0 -1 -1 -3 -5 -5 -5 -6 -6 -6 -5
7 3 6 4 4 1 -1 -2 -2 -3 -1 -1 -2 -2 -1 2 1 1 1 0 1 1 1 1 1 2 2 2 2 1 -0 -1 -2 -2 -3 -5 -6 -7 -8 -8 -8 -11 -11 -10
1 0 5 3 1 -0 -0 0 -1 -0 -0 -1 0 -0 0 2 1 0 0 0 0 0 0 1 1 1 0 -1 -2 -2 -2 -3 -3 -4 -6 -8 -9 -11 -14 -14 -15 -13 -13 -17
-3 -3 1 1 -2 -3 0 1 1 -1 1 0 -0 -1 1 2 1 -0 -0 -0 -0 -0 -0 0 -1 -1 -2 -3 -3 -4 -4 -5 -6 -8 -11 -12 -16 -16 -14 -15 -19 -24 -31 -35
-5 -3 3 4 -1 1 0 0 2 1 1 2 0 -0 1 1 0 -0 -0 -1 -1 -1 -1 -1 -2 -2 -3 -4 -5 -5 -6 -8 -10 -12 -14 -19 -21 -23 -16 -15 -15 -19 -20 -28
Wind_Speed
21 13 15 17 11 12 11 11 9 8 5 7 8 19 9 13 9 11 13 15 14 16 17 19 20 22 23 23 24 23 23 22 20 17 17 17 18 18 19 18 19 20 19 21
13 16 17 5 4 7 11 13 12 3 3 6 6 18 5 8 10 13 15 15 17 18 19 20 23 24 25 26 25 23 22 22 20 18 18 18 18 19 19 18 18 20 20 23
17 13 10 6 10 9 11 14 2 2 17 13 14 17 9 8 13 14 13 14 16 20 22 23 25 26 26 27 27 25 24 23 21 19 18 18 18 19 20 20 19 23 23 24
19 12 8 12 13 10 13 11 8 10 10 8 15 3 18 13 13 13 17 19 22 22 22 24 26 28 28 28 28 27 26 25 24 23 21 22 21 22 21 21 21 28 23 27
17 17 13 14 13 11 14 5 7 11 12 15 14 7 10 12 10 14 17 23 23 24 26 26 28 28 28 28 29 29 28 27 25 24 24 22 22 20 18 19 21 25 21 24
20 15 16 19 15 7 6 7 10 11 11 11 7 12 6 10 11 7 17 21 24 23 25 26 26 26 27 27 28 28 28 29 28 26 26 26 24 23 21 22 24 24 21 25
20 14 14 8 10 9 11 13 9 8 3 8 10 6 7 13 4 1 2 9 20 23 24 25 27 29 29 31 31 29 29 29 29 29 28 28 28 25 25 23 23 18 22 25
18 20 21 14 16 12 16 16 7 8 6 2 6 6 4 7 3 1 4 6 8 13 23 29 29 30 30 31 31 31 30 29 30 31 29 27 27 27 26 28 23 26 24 28
18 21 22 15 14 14 12 15 9 7 2 3 6 7 6 6 4 3 1 4 5 6 14 23 29 29 29 29 31 32 29 28 28 29 28 29 29 29 26 30 29 27 28 31
10 15 11 14 8 11 8 10 8 7 4 8 6 7 5 7 4 6 5 5 5 4 3 10 20 28 27 27 27 27 27 27 26 27 29 30 32 31 29 27 28 30 29 25
12 14 13 12 16 15 12 10 9 4 7 5 5 4 4 3 6 4 1 2 3 4 4 5 9 18 25 24 23 25 25 24 23 24 27 28 31 28 28 28 30 29 26 23
21 12 12 17 16 20 13 18 17 9 11 7 8 11 4 6 8 6 8 4 3 2 2 4 6 9 14 20 23 22 22 21 21 21 20 25 23 20 21 18 20 22 23 23
19 11 13 16 10 9 12 13 13 14 11 11 8 7 2 3 3 7 9 8 7 8 5 5 7 8 10 13 16 17 16 16 16 16 17 23 20 16 18 20 20 21 19 21
24 15 17 15 16 15 18 17 18 16 9 12 14 16 10 9 15 11 13 8 9 9 9 9 8 10 11 12 13 14 15 18 21 24 23 19 17 15 15 15 15 14 14 12
19 21 19 20 17 13 16 20 20 20 19 18 15 17 13 6 9 9 6 4 7 7 7 9 10 10 11 13 16 20 17 16 15 13 14 14 13 12 9 8 8 8 9 10
19 16 21 19 19 18 13 16 18 19 18 17 19 19 13 9 13 8 7 5 8 6 5 6 10 12 12 12 10 12 12 12 13 12 11 11 8 8 8 7 5 6 9 8
16 14 16 17 19 19 18 18 18 18 17 15 17 16 16 12 10 9 11 9 9 8 7 9 12 13 12 11 12 12 10 11 11 10 11 11 12 12 10 10 9 7 6 7
13 16 11 7 2 12 11 16 19 21 20 16 17 18 16 15 11 7 9 12 11 12 12 13 14 15 15 15 15 16 16 16 16 16 16 16 15 13 12 9 9 7 6 5
10 11 10 8 11 13 15 8 12 15 16 16 17 17 15 3 5 7 9 11 14 15 15 17 17 18 18 18 18 18 18 17 17 17 16 16 14 12 9 8 7 5 3 3
10 11 9 6 14 17 12 16 13 14 13 17 17 8 9 10 6 9 21 19 17 16 15 17 17 18 18 18 18 19 19 18 17 17 16 14 12 11 9 3 1 3 4 3
6 6 13 11 8 8 10 13 14 11 11 11 5 7 11 9 9 8 22 21 20 18 18 18 17 17 17 18 19 20 19 18 17 16 15 12 7 6 7 7 6 5 4 2
10 9 5 8 9 11 7 10 13 15 19 9 11 11 10 11 13 20 22 23 23 22 20 19 19 18 18 18 18 19 18 17 16 14 12 10 9 8 7 6 4 2 1 2
8 10 9 9 5 7 20 16 25 14 10 9 11 10 14 20 20 22 24 25 24 23 22 20 21 21 19 18 17 18 17 16 15 13 11 9 9 7 6 5 2 2 2 3
13 7 4 6 11 12 13 15 17 9 12 10 9 11 16 22 22 25 26 26 25 24 23 23 23 22 21 19 18 17 16 15 14 13 11 10 9 6 4 2 1 2 5 5
11 8 10 17 19 22 13 12 17 17 16 14 11 13 18 21 25 27 28 28 27 26 24 23 23 22 20 19 18 16 15 14 13 12 10 8 6 5 2 3 5 5 9 8
15 13 9 9 11 12 18 20 13 20 23 17 15 16 19 23 25 28 28 28 28 28 27 25 23 23 21 20 18 16 14 13 13 11 9 7 5 4 3 2 7 9 10 10
Wind_Direction
202 223 231 246 232 274 302 302 257 176 162 280 257 227 244 154 181 186 177 180 173 180 177 174 172 168 169 173 173 178 181 182 183 188 191 197 202 203 207 208 212 224 221 232
203 231 247 235 263 249 244 254 251 178 175 261 297 286 111 164 187 193 186 185 181 179 180 180 180 181 182 184 187 188 192 192 194 201 205 208 212 213 215 216 218 225 230 238
223 227 221 202 203 227 240 267 39 117 266 233 262 256 234 172 177 195 196 183 193 189 186 187 189 189 191 196 196 196 199 203 207 206 209 211 212 213 218 219 223 240 234 241
222 234 212 218 235 216 247 224 272 295 267 282 302 292 273 169 196 196 193 195 197 199 200 194 197 199 199 201 203 203 203 205 209 208 208 211 213 214 217 218 223 228 227 240
217 228 197 229 228 229 263 247 251 267 274 291 235 250 195 259 203 194 198 201 204 200 202 203 201 203 203 203 204 207 209 210 211 214 211 215 216 217 217 218 221 247 236 239
230 208 217 229 229 230 265 238 240 247 257 265 213 255 230 231 237 180 187 195 205 205 204 204 204 203 205 206 207 208 209 212 212 214 217 215 219 214 218 217 215 229 236 246
218 201 218 238 204 199 228 228 227 227 254 237 285 265 177 265 99 325 256 207 200 210 212 210 205 203 204 206 207 208 210 212 214 214 216 219 221 223 223 223 229 229 240 256
206 205 204 190 225 202 205 227 212 206 242 223 156 243 320 73 25 300 258 250 234 219 214 212 209 208 207 206 207 208 211 212 214 214 219 221 225 226 228 227 241 249 250 258
204 215 193 203 209 240 209 219 256 273 322 306 273 227 218 130 220 197 235 242 219 223 225 218 212 208 210 210 209 211 212 215 216 219 218 223 225 223 225 233 234 238 245 246
211 211 190 177 206 222 253 236 214 237 230 230 251 239 140 190 150 138 141 82 82 127 197 212 217 210 212 212 213 213 216 217 217 219 224 229 235 233 226 227 232 236 246 258
218 233 166 159 208 206 199 225 232 155 295 234 252 246 89 141 169 183 119 123 61 59 105 161 202 217 214 214 213 212 216 217 216 216 226 232 234 242 244 245 239 241 258 265
214 212 187 201 209 225 217 211 215 229 234 235 265 279 302 228 215 246 225 220 212 206 132 147 170 184 199 209 212 210 213 216 214 212 214 234 240 243 236 243 243 245 252 249
208 223 214 190 181 207 234 237 228 223 256 232 215 255 7 81 227 215 249 241 216 217 204 181 169 174 176 181 189 194 195 197 197 197 200 217 232 226 226 231 239 254 257 261
214 211 223 217 208 206 212 231 225 232 221 239 252 265 249 258 225 244 234 217 240 210 212 217 187 174 168 167 169 169 168 177 179 191 203 211 217 221 229 240 247 249 247 237
212 220 224 235 243 222 217 209 222 230 228 239 248 263 266 286 261 267 27 156 223 217 216 211 207 180 167 156 159 178 184 184 191 193 193 201 208 215 212 219 226 229 222 205
206 220 226 232 237 243 241 249 234 233 230 250 250 254 264 263 269 268 258 221 208 197 182 180 183 178 164 163 156 174 174 176 182 182 181 178 179 185 174 172 181 189 193 199
202 215 221 234 227 236 240 237 246 243 248 247 247 257 259 257 246 232 244 222 202 188 171 153 152 158 160 157 141 141 162 163 166 163 148 145 148 152 146 148 154 158 142 152
211 208 216 208 234 224 240 234 233 242 253 247 242 249 270 276 279 293 218 215 189 170 155 143 142 141 140 139 134 127 126 123 124 124 125 128 131 128 126 122 129 139 148 170
236 220 218 218 223 242 242 212 225 244 256 248 252 260 259 218 142 209 204 194 180 166 152 144 142 139 136 134 133 132 129 129 130 128 129 128 128 125 130 141 148 168 209 259
219 233 218 186 231 238 240 241 223 250 259 259 262 263 285 143 221 272 180 171 165 160 153 146 142 139 138 138 137 135 133 131 130 130 128 127 126 128 137 154 180 99 108 158
178 213 224 214 236 245 226 227 209 203 241 267 254 251 245 205 245 148 161 165 162 160 155 148 144 142 142 141 140 136 136 135 135 133 133 135 138 120 123 134 142 148 169 188
180 189 188 229 227 238 136 139 196 221 245 253 236 253 229 185 148 155 162 163 162 159 156 152 149 146 145 147 146 143 141 139 136 136 136 131 136 136 137 142 141 140 198 252
215 218 208 204 220 243 186 213 220 250 283 235 255 241 200 175 170 169 168 168 166 163 160 158 155 149 148 152 152 145 143 143 138 136 135 135 134 135 138 143 158 188 261 278
219 253 230 232 235 239 224 249 259 281 251 252 242 220 198 184 180 174 173 172 169 167 166 162 159 154 152 153 152 149 147 146 144 142 143 146 148 143 146 143 158 221 255 269
236 226 243 260 261 272 246 252 259 251 246 236 226 210 197 188 186 181 177 175 172 169 167 165 161 158 155 153 150 149 150 150 150 149 149 153 165 163 161 215 227 262 276 287
241 235 233 246 262 267 268 261 279 240 241 236 224 206 195 194 189 184 180 176 173 170 167 165 164 160 159 156 154 152 150 157 153 149 166 182 196 210 187 210 303 299 298 296
Height
1484 1483 1477 1464 1460 1462 1464 1457 1456 1451 1455 1460 1456 1457 1449 1458 1462 1465 1472 1477 1483 1486 1491 1496 1501 1504 1508 1511 1514 1518 1521 1524 1529 1532 1535 1539 1542 1545 1549 1552 1554 1554 1552 1555
1475 1477 1464 1461 1466 1470 1468 1462 1458 1452 1456 1461 1455 1455 1454 1452 1460 1462 1467 1472 1478 1484 1489 1494 1499 1502 1505 1508 1512 1516 1520 1523 1526 1530 1533 1536 1539 1542 1545 1547 1550 1548 1549 1552
1468 1461 1459 1466 1467 1470 1467 1462 1467 1464 1465 1455 1455 1451 1447 1450 1456 1461 1463 1468 1475 1479 1484 1491 1496 1499 1503 1507 1510 1514 1518 1521 1524 1527 1530 1534 1537 1538 1540 1542 1544 1544 1547 1547
1463 1458 1463 1464 1465 1463 1466 1456 1459 1459 1461 1465 1461 1471 1460 1447 1453 1457 1462 1466 1471 1474 1479 1484 1490 1494 1498 1502 1506 1510 1514 1517 1521 1524 1527 1529 1531 1533 1536 1538 1541 1539 1541 1543
1459 1458 1461 1464 1461 1459 1462 1461 1461 1459 1459 1455 1449 1455 1461 1442 1445 1446 1453 1462 1464 1468 1473 1477 1483 1488 1492 1497 1501 1505 1509 1513 1516 1519 1522 1525 1528 1530 1532 1534 1536 1533 1537 1538
1452 1454 1456 1456 1456 1458 1458 1463 1461 1459 1456 1470 1452 1451 1457 1442 1438 1435 1440 1451 1457 1462 1466 1471 1476 1482 1487 1493 1497 1500 1504 1508 1511 1515 1517 1520 1523 1525 1527 1528 1529 1529 1531 1532
1453 1452 1453 1454 1458 1460 1461 1463 1472 1476 1485 1469 1454 1451 1446 1443 1434 1439 1441 1444 1449 1456 1462 1466 1470 1475 1480 1485 1490 1494 1498 1501 1505 1508 1511 1513 1516 1519 1521 1523 1525 1525 1526 1528
1453 1459 1449 1452 1451 1451 1456 1454 1466 1486 1477 1481 1448 1456 1442 1431 1438 1442 1444 1446 1448 1451 1453 1459 1463 1469 1474 1478 1483 1487 1491 1495 1500 1502 1505 1509 1510 1512 1514 1516 1514 1517 1517 1519
1442 1445 1437 1444 1447 1448 1448 1456 1448 1460 1456 1465 1447 1436 1430 1433 1437 1440 1442 1444 1444 1447 1449 1452 1457 1462 1468 1473 1477 1481 1487 1490 1494 1497 1501 1503 1504 1507 1508 1507 1510 1512 1512 1512
1429 1443 1434 1443 1446 1446 1450 1444 1461 1455 1477 1476 1447 1441 1441 1437 1437 1440 1440 1442 1445 1447 1448 1450 1453 1457 1463 1467 1473 1477 1481 1485 1489 1493 1494 1495 1496 1499 1502 1503 1503 1505 1505 1508
1426 1431 1441 1444 1447 1444 1450 1451 1447 1454 1462 1465 1461 1443 1429 1433 1437 1439 1442 1445 1446 1447 1448 1450 1452 1454 1458 1463 1468 1472 1476 1480 1483 1486 1487 1489 1489 1492 1495 1498 1499 1500 1501 1502
1425 1431 1438 1441 1433 1434 1433 1441 1441 1455 1455 1451 1454 1448 1427 1433 1434 1438 1441 1444 1445 1448 1449 1450 1452 1454 1456 1459 1464 1467 1472 1475 1478 1481 1484 1483 1485 1487 1489 1491 1494 1495 1496 1496
1424 1432 1440 1438 1440 1436 1438 1433 1432 1436 1440 1454 1464 1454 1433 1432 1436 1438 1440 1440 1444 1446 1447 1449 1451 1453 1456 1458 1461 1465 1468 1471 1475 1478 1480 1478 1480 1482 1484 1486 1489 1490 1491 1493
1424 1425 1428 1433 1430 1430 1439 1434 1431 1435 1449 1450 1446 1436 1428 1429 1431 1431 1432 1437 1440 1443 1445 1447 1449 1452 1454 1457 1461 1464 1466 1466 1467 1468 1470 1474 1477 1479 1481 1483 1484 1486 1487 1488
1421 1425 1424 1421 1417 1417 1420 1426 1429 1431 1432 1440 1437 1432 1424 1424 1426 1426 1431 1433 1439 1441 1443 1444 1447 1451 1454 1457 1457 1456 1458 1460 1462 1465 1468 1471 1473 1475 1477 1479 1481 1483 1484 1486
1416 1421 1423 1423 1418 1417 1420 1418 1418 1418 1422 1425 1425 1426 1419 1422 1425 1429 1433 1436 1438 1441 1443 1444 1445 1449 1453 1455 1454 1453 1455 1457 1460 1462 1466 1469 1472 1474 1476 1477 1479 1481 1483 1485
1414 1419 1420 1427 1417 1419 1428 1420 1418 1416 1415 1419 1426 1421 1417 1417 1420 1425 1431 1435 1438 1442 1443 1443 1445 1448 1451 1454 1454 1453 1454 1457 1460 1463 1466 1468 1471 1474 1475 1477 1479 1481 1484 1487
1412 1415 1416 1428 1436 1439 1413 1410 1411 1414 1412 1411 1413 1413 1413 1414 1417 1422 1429 1433 1438 1440 1442 1444 1445 1448 1451 1454 1455 1456 1458 1460 1463 1465 1468 1470 1472 1473 1475 1477 1480 1483 1485 1488
1414 1412 1417 1428 1424 1416 1405 1411 1413 1413 1411 1404 1406 1406 1407 1411 1421 1427 1430 1433 1437 1440 1441 1443 1445 1447 1450 1453 1455 1457 1460 1462 1464 1466 1468 1470 1472 1474 1476 1478 1480 1483 1484 1486
1411 1413 1416 1421 1426 1427 1408 1404 1405 1405 1412 1401 1400 1402 1406 1413 1421 1414 1423 1430 1436 1440 1442 1444 1445 1447 1450 1452 1454 1456 1460 1463 1465 1467 1469 1471 1473 1475 1476 1478 1479 1481 1484 1486
1420 1421 1419 1417 1417 1403 1394 1395 1398 1418 1410 1396 1398 1400 1405 1409 1414 1416 1422 1428 1431 1437 1440 1442 1446 1448 1450 1452 1455 1458 1460 1462 1464 1466 1468 1470 1472 1474 1476 1478 1480 1482 1483 1483
1411 1414 1419 1415 1417 1419 1396 1399 1403 1396 1395 1396 1397 1399 1402 1408 1413 1417 1422 1426 1429 1433 1437 1441 1444 1447 1450 1453 1455 1457 1459 1461 1463 1465 1467 1469 1471 1473 1475 1477 1478 1479 1480 1479
1404 1393 1399 1398 1394 1391 1393 1391 1391 1392 1393 1394 1396 1397 1400 1405 1410 1415 1419 1424 1427 1430 1435 1439 1441 1445 1449 1453 1456 1458 1459 1460 1462 1465 1467 1468 1471 1473 1474 1475 1475 1477 1477 1476
1387 1388 1393 1392 1386 1388 1390 1392 1393 1393 1394 1394 1395 1395 1398 1401 1406 1410 1416 1420 1424 1429 1433 1437 1440 1443 1447 1451 1454 1455 1457 1459 1461 1463 1465 1467 1469 1470 1471 1472 1472 1473 1471 1470
1387 1386 1388 1387 1386 1386 1387 1388 1389 1390 1392 1392 1392 1393 1395 1399 1402 1406 1410 1415 1420 1425 1431 1435 1439 1442 1445 1448 1450 1453 1455 1457 1459 1461 1463 1465 1466 1468 1469 1469 1468 1467 1466 1465
1382 1381 1385 1386 1383 1383 1383 1385 1385 1384 1387 1389 1389 1390 1391 1395 1399 1404 1408 1413 1418 1421 1425 1430 1435 1439 1442 1444 1445 1449 1453 1455 1457 1458 1460 1462 1464 1465 1467 1467 1465 1464 1463 1461